Flag for U.S.A. Weather past 2 weeks in Tacoma, Washington, U.S.A.

Now
49 °F

Cloudy.


Feels Like: 46 °F
Forecast: 40 / 51 °F
Wind: 7 mph from Southwest

Location: Tacoma Narrows Airport

Current Time: Apr 1, 2015 at 11:33:04 AM

Latest Report: Apr 1, 2015 at 10:53 AM


Visibility: 10 mi

Pressure: 30.30 "Hg

Humidity: 66%

Dew point: 38 °F

Location of TacomaLocation

Historic Weather in Tacoma — Graph

°F

Tacoma temperature yesterday

Maximum temperature yesterday: 55 °F (at 12:53 PM)
Minimum temperature yesterday: 44 °F (at 10:53 PM)
Average temperature yesterday: 49 °F

Past Weeks' High & Low Weather Summary

 TemperatureHumidityPressure
High69 °F (Mar 26, 5:53 PM)100% (Mar 23, 5:53 AM)30.36 "Hg (Mar 23, 5:53 AM)
Low41 °F (Mar 22, 5:53 AM)45% (Mar 26, 5:53 PM)29.83 "Hg (Mar 31, 12:53 AM)
Average51 °F79%30.11 "Hg
* Reported Mar 17 9:53 AM — Apr 1 9:53 AM, Tacoma, Weather by CustomWeather, © 2015

Note: Actual official high and low records may vary slightly from our data, if they occured in-between our weather recording intervals... More about our weather records

Advertising

Tacoma weather history for previous 24 hours

 ConditionsComfort  
Time TempWeatherWind HumidityBarometerVisibility
9:53 AM
Wed, Apr 1
47 °FScattered clouds.7 mph71%30.30 "Hg10 mi
8:53 AM44 °FScattered clouds.7 mph79%30.28 "Hg10 mi
7:53 AM42 °FScattered clouds.6 mph85%30.28 "Hg10 mi
6:53 AM41 °FPassing clouds.6 mph86%30.28 "Hg10 mi
6:03 AM41 °FPassing clouds.8 mph86%30.26 "Hg10 mi
5:53 AM41 °FPassing clouds.6 mph86%30.27 "Hg10 mi
5:01 AM42 °FPassing clouds.9 mph85%30.26 "Hg10 mi
4:53 AM42 °FPassing clouds.8 mph82%30.26 "Hg10 mi
3:53 AM43 °FOvercast.8 mph86%30.25 "Hg10 mi
2:53 AM43 °FClear.No wind82%30.24 "Hg10 mi
1:53 AM44 °FClear.10 mph79%30.24 "Hg10 mi
12:53 AM44 °FPassing clouds.7 mph82%30.22 "Hg10 mi
11:53 PM
Tue, Mar 31
45 °FOvercast.5 mph80%30.21 "Hg10 mi
10:53 PM44 °FPassing clouds.6 mph82%30.20 "Hg10 mi
9:53 PM45 °FClear.8 mph80%30.20 "Hg10 mi
8:53 PM46 °FPassing clouds.10 mph77%30.17 "Hg10 mi
7:53 PM47 °FOvercast.12 mph71%30.15 "Hg10 mi
6:53 PM48 °FBroken clouds.10 mph68%30.14 "Hg10 mi
5:53 PM49 °FCloudy.7 mph66%30.14 "Hg10 mi
4:53 PM51 °FBroken clouds.13 mph56%30.12 "Hg10 mi
3:53 PM52 °FSunny.14 mph57%30.12 "Hg10 mi
2:53 PM53 °FBroken clouds.15 mph52%30.10 "Hg10 mi
1:53 PM52 °FScattered clouds.15 mph59%30.09 "Hg10 mi
12:53 PM55 °FScattered clouds.12 mph53%30.09 "Hg10 mi
11:53 AM53 °FScattered clouds.12 mph55%30.09 "Hg10 mi
Weather by CustomWeather, © 2015

See weather overviewHow to use our weather pages